| time (UTC) | temp F | wind direction | speed knots | gust knots | rain 1hr in | rain 24hr in | rain mn in | humidity % | barometer mb |
| 20260510231054 | 82 | 0 | 0.0 | 2.6 | 0.00 | 0.07 | 0.00 | 67 | 1015.6 |
| 20260510230554 | 82 | 0 | 0.0 | 2.6 | 0.00 | 0.07 | 0.00 | 66 | 1015.6 |
| 20260510230056 | 82 | 127 | 0.9 | 3.5 | 0.00 | 0.07 | 0.00 | 65 | 1015.6 |
| 20260510225556 | 82 | 23 | 1.7 | 3.5 | 0.00 | 0.10 | 0.00 | 66 | 1015.6 |
| 20260510225053 | 83 | 82 | 0.0 | 2.6 | 0.00 | 0.10 | 0.00 | 64 | 1015.5 |
| 20260510224555 | 83 | 125 | 0.0 | 4.3 | 0.00 | 0.10 | 0.00 | 65 | 1015.6 |
| 20260510224053 | 83 | 71 | 0.9 | 3.5 | 0.00 | 0.10 | 0.00 | 63 | 1015.6 |
| 20260510223556 | 82 | 32 | 0.9 | 2.6 | 0.00 | 0.10 | 0.00 | 61 | 1015.6 |
| 20260510223054 | 82 | 73 | 0.0 | 1.7 | 0.00 | 0.10 | 0.00 | 62 | 1015.6 |
| 20260510222553 | 82 | 109 | 0.0 | 3.5 | 0.00 | 0.10 | 0.00 | 65 | 1015.6 |
| 20260510222052 | 82 | 105 | 0.9 | 3.5 | 0.00 | 0.10 | 0.00 | 63 | 1015.6 |
| 20260510221557 | 83 | 61 | 0.9 | 3.5 | 0.00 | 0.10 | 0.00 | 63 | 1015.4 |
| 20260510221054 | 83 | 0 | 0.9 | 3.5 | 0.00 | 0.10 | 0.00 | 67 | 1015.4 |
| 20260510220554 | 83 | 74 | 0.9 | 2.6 | 0.00 | 0.10 | 0.00 | 67 | 1015.5 |
| 20260510220058 | 83 | 101 | 0.9 | 2.6 | 0.00 | 0.10 | 0.00 | 65 | 1015.4 |
| 20260510215556 | 83 | 98 | 0.0 | 2.6 | 0.00 | 0.12 | 0.00 | 65 | 1015.5 |
| 20260510215057 | 83 | 78 | 0.9 | 2.6 | 0.00 | 0.12 | 0.00 | 64 | 1015.6 |
| 20260510214556 | 84 | 171 | 0.9 | 2.6 | 0.00 | 0.12 | 0.00 | 64 | 1015.6 |
| 20260510214053 | 84 | 85 | 0.9 | 1.7 | 0.00 | 0.12 | 0.00 | 63 | 1015.5 |
| 20260510213553 | 83 | 139 | 0.0 | 3.5 | 0.00 | 0.12 | 0.00 | 64 | 1015.5 |
| 20260510213054 | 83 | 150 | 0.9 | 3.5 | 0.00 | 0.12 | 0.00 | 64 | 1015.5 |
| 20260510212554 | 84 | 0 | 0.0 | 3.5 | 0.00 | 0.12 | 0.00 | 65 | 1015.4 |
| 20260510212054 | 84 | 90 | 0.9 | 3.5 | 0.00 | 0.12 | 0.00 | 64 | 1015.4 |
| 20260510211557 | 84 | 68 | 0.9 | 3.5 | 0.00 | 0.12 | 0.00 | 65 | 1015.4 |
| 20260510211057 | 83 | 346 | 0.9 | 3.5 | 0.00 | 0.12 | 0.00 | 66 | 1015.5 |
| 20260510210553 | 83 | 156 | 0.9 | 2.6 | 0.00 | 0.12 | 0.00 | 68 | 1015.6 |
| 20260510210110 | 83 | 78 | 0.9 | 1.7 | 0.00 | 0.12 | 0.00 | 65 | 1015.6 |
| 20260510205556 | 83 | 149 | 0.0 | 3.5 | 0.00 | 0.12 | 0.00 | 65 | 1015.7 |
| 20260510205054 | 83 | 96 | 0.9 | 3.5 | 0.00 | 0.12 | 0.00 | 68 | 1015.8 |
| 20260510204604 | 84 | 0 | 0.9 | 3.5 | 0.00 | 0.12 | 0.00 | 68 | 1015.6 |
| 20260510204057 | 84 | 103 | 1.7 | 4.3 | 0.00 | 0.12 | 0.00 | 67 | 1015.4 |
| 20260510203553 | 83 | 1 | 0.9 | 4.3 | 0.00 | 0.12 | 0.00 | 68 | 1015.6 |
| 20260510203053 | 83 | 75 | 0.9 | 3.5 | 0.00 | 0.12 | 0.00 | 67 | 1015.7 |
| 20260510202554 | 84 | 120 | 0.9 | 2.6 | 0.00 | 0.12 | 0.00 | 66 | 1015.6 |
| 20260510202054 | 84 | 39 | 0.9 | 2.6 | 0.00 | 0.12 | 0.00 | 69 | 1015.6 |
| 20260510201553 | 84 | 15 | 0.9 | 4.3 | 0.00 | 0.12 | 0.00 | 68 | 1015.4 |
| 20260510201053 | 84 | 82 | 1.7 | 6.1 | 0.00 | 0.12 | 0.00 | 67 | 1015.5 |
| 20260510200553 | 84 | 44 | 1.7 | 6.1 | 0.00 | 0.12 | 0.00 | 67 | 1015.5 |
| 20260510200055 | 84 | 110 | 0.9 | 3.5 | 0.00 | 0.12 | 0.00 | 68 | 1015.4 |
| 20260510195554 | 84 | 127 | 0.9 | 2.6 | 0.00 | 0.22 | 0.00 | 69 | 1015.5 |
| 20260510195059 | 84 | 112 | 0.9 | 6.1 | 0.00 | 0.22 | 0.00 | 69 | 1015.5 |
| 20260510194554 | 83 | 94 | 0.9 | 6.1 | 0.00 | 0.22 | 0.00 | 70 | 1015.6 |
| 20260510194057 | 84 | 115 | 1.7 | 6.1 | 0.00 | 0.22 | 0.00 | 69 | 1015.6 |
| 20260510193556 | 84 | 77 | 0.9 | 4.3 | 0.00 | 0.22 | 0.00 | 70 | 1015.6 |
| 20260510193107 | 84 | 117 | 0.9 | 2.6 | 0.00 | 0.22 | 0.00 | 71 | 1015.7 |
| 20260510192553 | 83 | 64 | 0.9 | 3.5 | 0.00 | 0.22 | 0.00 | 72 | 1015.6 |
| 20260510192055 | 82 | 162 | 0.9 | 3.5 | 0.00 | 0.22 | 0.00 | 73 | 1015.7 |
| 20260510191559 | 82 | 155 | 0.9 | 2.6 | 0.00 | 0.22 | 0.00 | 74 | 1015.7 |
| 20260510191056 | 81 | 122 | 0.9 | 2.6 | 0.00 | 0.22 | 0.00 | 74 | 1015.7 |
| 20260510190555 | 82 | 0 | 0.9 | 2.6 | 0.00 | 0.22 | 0.00 | 74 | 1015.7 |
| 20260510190057 | 82 | 103 | 0.9 | 3.5 | 0.00 | 0.22 | 0.00 | 72 | 1015.7 |
| 20260510185554 | 83 | 0 | 0.9 | 3.5 | 0.00 | 0.31 | 0.00 | 72 | 1015.6 |
| 20260510185053 | 85 | 38 | 0.9 | 3.5 | 0.00 | 0.31 | 0.00 | 69 | 1015.6 |
| 20260510184555 | 84 | 122 | 0.9 | 4.3 | 0.00 | 0.31 | 0.00 | 71 | 1015.5 |
| 20260510184054 | 84 | 145 | 0.9 | 4.3 | 0.00 | 0.31 | 0.00 | 68 | 1015.7 |
| 20260510183554 | 83 | 69 | 0.9 | 4.3 | 0.00 | 0.31 | 0.00 | 68 | 1015.6 |
| 20260510183056 | 83 | 115 | 0.9 | 5.2 | 0.00 | 0.31 | 0.00 | 71 | 1015.7 |
| 20260510182556 | 84 | 144 | 0.9 | 5.2 | 0.00 | 0.31 | 0.00 | 70 | 1016.0 |
| 20260510182057 | 83 | 106 | 0.9 | 5.2 | 0.00 | 0.31 | 0.00 | 68 | 1015.9 |
| 20260510181559 | 83 | 89 | 0.0 | 5.2 | 0.00 | 0.31 | 0.00 | 71 | 1016.2 |
| 20260510181054 | 84 | 131 | 0.9 | 3.5 | 0.00 | 0.31 | 0.00 | 67 | 1016.2 |
| 20260510180555 | 83 | 82 | 0.9 | 2.6 | 0.00 | 0.31 | 0.00 | 69 | 1016.3 |
| 20260510180059 | 83 | 74 | 0.9 | 2.6 | 0.00 | 0.31 | 0.00 | 71 | 1016.3 |
| 20260510175554 | 82 | 69 | 0.9 | 2.6 | 0.00 | 0.58 | 0.00 | 73 | 1016.5 |
| 20260510175057 | 82 | 99 | 0.0 | 2.6 | 0.00 | 0.58 | 0.00 | 73 | 1016.5 |
| 20260510174554 | 82 | 1 | 0.0 | 2.6 | 0.00 | 0.58 | 0.00 | 73 | 1016.6 |
| 20260510174055 | 82 | 79 | 0.9 | 3.5 | 0.00 | 0.58 | 0.00 | 71 | 1016.6 |
| 20260510173555 | 83 | 359 | 0.9 | 3.5 | 0.00 | 0.58 | 0.00 | 70 | 1016.6 |
| 20260510173053 | 83 | 41 | 0.9 | 3.5 | 0.00 | 0.58 | 0.00 | 71 | 1016.7 |
| 20260510172556 | 83 | 15 | 0.0 | 3.5 | 0.00 | 0.58 | 0.00 | 71 | 1016.6 |
| 20260510172054 | 83 | 54 | 0.0 | 2.6 | 0.00 | 0.58 | 0.00 | 72 | 1016.7 |
| 20260510171559 | 82 | 175 | 0.9 | 3.5 | 0.00 | 0.58 | 0.00 | 74 | 1016.7 |
| 20260510171053 | 82 | 95 | 0.9 | 3.5 | 0.00 | 0.58 | 0.00 | 72 | 1016.9 |
| 20260510170553 | 82 | 146 | 1.7 | 4.3 | 0.00 | 0.58 | 0.00 | 73 | 1016.9 |
| 20260510170111 | 82 | 158 | 0.9 | 4.3 | 0.00 | 0.58 | 0.00 | 73 | 1016.9 |
| 20260510165554 | 82 | 67 | 1.7 | 4.3 | 0.00 | 1.00 | 0.00 | 73 | 1017.0 |
| 20260510165054 | 82 | 26 | 0.9 | 3.5 | 0.00 | 1.00 | 0.00 | 73 | 1016.9 |
| 20260510164602 | 82 | 120 | 0.0 | 4.3 | 0.00 | 1.00 | 0.00 | 76 | 1017.0 |
| 20260510164056 | 80 | 0 | 0.9 | 4.3 | 0.00 | 1.00 | 0.00 | 76 | 1016.9 |
| 20260510163554 | 81 | 94 | 0.9 | 2.6 | 0.00 | 1.00 | 0.00 | 73 | 1017.0 |
| 20260510163056 | 81 | 0 | 0.0 | 2.6 | 0.00 | 1.00 | 0.00 | 76 | 1016.9 |
| 20260510162555 | 81 | 65 | 0.9 | 2.6 | 0.00 | 1.00 | 0.00 | 77 | 1016.8 |
| 20260510162054 | 80 | 1 | 0.9 | 2.6 | 0.00 | 1.00 | 0.00 | 78 | 1016.9 |
| 20260510161558 | 80 | 29 | 0.9 | 3.5 | 0.00 | 1.00 | 0.00 | 76 | 1017.1 |
| 20260510161056 | 81 | 86 | 0.9 | 3.5 | 0.00 | 1.00 | 0.00 | 78 | 1017.1 |
| 20260510160554 | 81 | 53 | 0.9 | 3.5 | 0.00 | 1.00 | 0.00 | 77 | 1017.0 |
| 20260510160109 | 80 | 1 | 0.9 | 2.6 | 0.00 | 1.00 | 0.00 | 77 | 1016.9 |
| 20260510155553 | 80 | 1 | 0.9 | 2.6 | 0.00 | 1.29 | 0.00 | 76 | 1016.8 |
| 20260510155057 | 80 | 132 | 0.9 | 3.5 | 0.00 | 1.29 | 0.00 | 75 | 1016.7 |
| 20260510154617 | 80 | 86 | 1.7 | 3.5 | 0.00 | 1.29 | 0.00 | 76 | 1016.6 |
| 20260510154054 | 79 | 86 | 0.9 | 2.6 | 0.00 | 1.29 | 0.00 | 78 | 1016.6 |
| 20260510153554 | 79 | 359 | 0.9 | 2.6 | 0.00 | 1.29 | 0.00 | 80 | 1016.5 |
| 20260510152553 | 79 | 55 | 0.9 | 3.5 | 0.00 | 1.29 | 0.00 | 79 | 1016.5 |
| 20260510152056 | 78 | 359 | 0.9 | 3.5 | 0.00 | 1.29 | 0.00 | 80 | 1016.5 |
| 20260510151555 | 78 | 8 | 0.9 | 1.7 | 0.00 | 1.29 | 0.00 | 81 | 1016.8 |
| 20260510151053 | 77 | 94 | 0.9 | 4.3 | 0.00 | 1.29 | 0.00 | 82 | 1017.0 |
| 20260510150554 | 76 | 75 | 0.0 | 4.3 | 0.00 | 1.29 | 0.00 | 85 | 1016.8 |
| 20260510145554 | 75 | 11 | 1.7 | 4.3 | 0.00 | 1.35 | 0.00 | 86 | 1017.0 |
| 20260510145054 | 75 | 1 | 0.0 | 1.7 | 0.00 | 1.35 | 0.00 | 90 | 1017.1 |
| 20260510144610 | 74 | 0 | 0.0 | 3.5 | 0.00 | 1.35 | 0.00 | 90 | 1017.1 |
| 20260510144054 | 74 | 8 | 0.9 | 5.2 | 0.00 | 1.35 | 0.00 | 90 | 1017.1 |
| 20260510143554 | 73 | 1 | 0.9 | 5.2 | 0.00 | 1.35 | 0.00 | 90 | 1017.0 |
| 20260510143059 | 73 | 1 | 0.9 | 3.5 | 0.00 | 1.35 | 0.00 | 92 | 1017.0 |
| 20260510142553 | 73 | 10 | 0.9 | 3.5 | 0.00 | 1.35 | 0.00 | 92 | 1016.9 |
| 20260510142053 | 73 | 2 | 0.9 | 4.3 | 0.00 | 1.35 | 0.00 | 92 | 1016.9 |
| 20260510141558 | 72 | 37 | 0.0 | 4.3 | 0.00 | 1.35 | 0.00 | 93 | 1016.9 |
| 20260510141053 | 72 | 0 | 0.9 | 4.3 | 0.00 | 1.35 | 0.00 | 93 | 1016.8 |
| 20260510140559 | 71 | 1 | 0.9 | 4.3 | 0.00 | 1.35 | 0.00 | 93 | 1016.8 |
| 20260510140054 | 71 | 0 | 0.9 | 3.5 | 0.00 | 1.35 | 0.00 | 94 | 1016.7 |
| 20260510135554 | 71 | 0 | 0.9 | 3.5 | 0.00 | 1.98 | 0.00 | 94 | 1016.7 |
| 20260510135054 | 71 | 0 | 0.0 | 3.5 | 0.00 | 1.98 | 0.00 | 94 | 1016.8 |
| 20260510134557 | 70 | 0 | 0.9 | 3.5 | 0.00 | 1.98 | 0.00 | 94 | 1016.8 |
| 20260510134057 | 70 | 1 | 0.0 | 2.6 | 0.00 | 1.98 | 0.00 | 94 | 1016.7 |
| 20260510133555 | 70 | 0 | 0.0 | 2.6 | 0.00 | 1.98 | 0.00 | 94 | 1016.8 |
| 20260510133058 | 70 | 21 | 0.9 | 2.6 | 0.00 | 1.98 | 0.00 | 94 | 1016.8 |
| 20260510132552 | 70 | 359 | 0.0 | 2.6 | 0.00 | 1.98 | 0.00 | 95 | 1016.8 |
| 20260510132055 | 70 | 9 | 0.0 | 2.6 | 0.00 | 1.98 | 0.00 | 95 | 1016.6 |
| 20260510131603 | 70 | 360 | 0.9 | 2.6 | 0.00 | 1.98 | 0.00 | 95 | 1016.4 |
| 20260510131055 | 69 | 360 | 0.0 | 2.6 | 0.00 | 1.98 | 0.00 | 95 | 1016.4 |
| 20260510130559 | 69 | 0 | 0.0 | 2.6 | 0.00 | 1.98 | 0.00 | 95 | 1016.4 |
| 20260510130056 | 69 | 0 | 0.9 | 2.6 | 0.00 | 1.98 | 0.00 | 95 | 1016.2 |
| 20260510125554 | 69 | 42 | 1.7 | 2.6 | 0.00 | 1.98 | 0.00 | 95 | 1016.1 |
| 20260510125054 | 69 | 1 | 0.9 | 2.6 | 0.00 | 1.98 | 0.00 | 95 | 1016.0 |
| 20260510124612 | 69 | 1 | 0.9 | 2.6 | 0.00 | 1.98 | 0.00 | 95 | 1015.9 |
| 20260510124056 | 69 | 25 | 0.9 | 1.7 | 0.00 | 1.98 | 0.00 | 95 | 1015.7 |
| 20260510123552 | 69 | 25 | 0.0 | 1.7 | 0.00 | 1.98 | 0.00 | 95 | 1015.5 |
| 20260510123110 | 68 | 0 | 0.0 | 1.7 | 0.00 | 1.98 | 0.00 | 95 | 1015.4 |
| 20260510122552 | 68 | 0 | 0.0 | 1.7 | 0.00 | 1.98 | 0.00 | 95 | 1015.4 |
| 20260510122052 | 68 | 0 | 0.0 | 1.7 | 0.00 | 1.98 | 0.00 | 95 | 1015.4 |
| 20260510121559 | 68 | 0 | 0.0 | 0.0 | 0.00 | 1.98 | 0.00 | 95 | 1015.5 |
| 20260510121052 | 68 | 0 | 0.0 | 0.0 | 0.00 | 1.98 | 0.00 | 95 | 1015.4 |
| 20260510120554 | 68 | 0 | 0.0 | 1.7 | 0.00 | 1.98 | 0.00 | 95 | 1015.4 |
| 20260510120055 | 68 | 0 | 0.0 | 1.7 | 0.00 | 1.98 | 0.00 | 95 | 1015.5 |
| 20260510115554 | 68 | 0 | 0.0 | 1.7 | 0.00 | 1.98 | 0.00 | 95 | 1015.3 |
| 20260510115054 | 67 | 0 | 0.0 | 1.7 | 0.00 | 1.98 | 0.00 | 95 | 1015.3 |
| 20260510114605 | 67 | 2 | 0.0 | 1.7 | 0.00 | 1.98 | 0.00 | 94 | 1015.2 |
| 20260510114054 | 67 | 0 | 0.0 | 0.9 | 0.00 | 1.98 | 0.00 | 94 | 1015.1 |
| 20260510113554 | 67 | 0 | 0.0 | 1.7 | 0.00 | 1.98 | 0.00 | 94 | 1015.0 |
| 20260510113102 | 67 | 0 | 0.0 | 1.7 | 0.00 | 1.98 | 0.00 | 94 | 1014.7 |
| 20260510112552 | 67 | 101 | 0.0 | 1.7 | 0.00 | 1.98 | 0.00 | 94 | 1014.7 |
| 20260510112052 | 67 | 0 | 0.0 | 1.7 | 0.00 | 1.98 | 0.00 | 94 | 1014.7 |
| 20260510111614 | 68 | 39 | 0.0 | 1.7 | 0.00 | 1.98 | 0.00 | 94 | 1014.6 |
| 20260510111055 | 67 | 0 | 0.0 | 1.7 | 0.00 | 1.98 | 0.00 | 94 | 1014.5 |
| 20260510110552 | 67 | 0 | 0.0 | 0.9 | 0.00 | 1.98 | 0.00 | 94 | 1014.4 |
| 20260510110055 | 67 | 0 | 0.0 | 0.9 | 0.00 | 1.98 | 0.00 | 94 | 1014.3 |
| 20260510105552 | 67 | 0 | 0.0 | 0.9 | 0.00 | 1.98 | 0.00 | 94 | 1014.3 |
| 20260510105052 | 67 | 0 | 0.0 | 0.0 | 0.00 | 1.98 | 0.00 | 94 | 1014.2 |
| 20260510104604 | 67 | 0 | 0.0 | 1.7 | 0.00 | 1.98 | 0.00 | 94 | 1014.1 |
| 20260510104051 | 67 | 0 | 0.0 | 1.7 | 0.00 | 1.98 | 0.00 | 94 | 1013.9 |
| 20260510103553 | 67 | 0 | 0.0 | 0.9 | 0.00 | 1.98 | 0.00 | 94 | 1013.9 |
| 20260510103056 | 67 | 0 | 0.0 | 0.9 | 0.00 | 1.98 | 0.00 | 94 | 1013.8 |
| 20260510102555 | 67 | 0 | 0.0 | 1.7 | 0.00 | 1.98 | 0.00 | 94 | 1013.5 |
| 20260510102054 | 67 | 0 | 0.0 | 1.7 | 0.00 | 1.98 | 0.00 | 94 | 1013.7 |
| 20260510101555 | 67 | 0 | 0.0 | 1.7 | 0.00 | 1.98 | 0.00 | 94 | 1013.6 |
| 20260510101054 | 67 | 0 | 0.0 | 1.7 | 0.00 | 1.98 | 0.00 | 94 | 1013.6 |
| 20260510100558 | 67 | 0 | 0.0 | 1.7 | 0.00 | 1.98 | 0.00 | 94 | 1013.5 |
| 20260510100059 | 67 | 0 | 0.0 | 1.7 | 0.00 | 1.98 | 0.00 | 94 | 1013.4 |
| 20260510095554 | 67 | 0 | 0.0 | 1.7 | 0.00 | 1.98 | 0.00 | 94 | 1013.4 |
| 20260510095058 | 67 | 0 | 0.0 | 1.7 | 0.00 | 1.98 | 0.00 | 94 | 1013.4 |
| 20260510094551 | 67 | 1 | 0.0 | 0.0 | 0.00 | 1.98 | 0.00 | 94 | 1013.4 |
| 20260510094054 | 67 | 0 | 0.0 | 0.9 | 0.00 | 1.98 | 0.00 | 94 | 1013.5 |
| 20260510093554 | 67 | 0 | 0.0 | 0.9 | 0.00 | 1.98 | 0.00 | 94 | 1013.5 |
| 20260510093055 | 67 | 0 | 0.0 | 0.0 | 0.00 | 1.98 | 0.00 | 94 | 1013.5 |
| 20260510092554 | 67 | 0 | 0.0 | 0.9 | 0.00 | 1.98 | 0.00 | 94 | 1013.4 |
| 20260510092053 | 67 | 0 | 0.0 | 3.5 | 0.00 | 1.98 | 0.00 | 94 | 1013.3 |
| 20260510091559 | 67 | 1 | 0.9 | 3.5 | 0.00 | 1.98 | 0.00 | 94 | 1013.3 |
| 20260510091053 | 67 | 1 | 0.9 | 1.7 | 0.00 | 1.98 | 0.00 | 94 | 1013.1 |
| 20260510090555 | 67 | 19 | 0.9 | 1.7 | 0.00 | 1.98 | 0.00 | 94 | 1013.1 |
| 20260510090104 | 67 | 360 | 0.0 | 1.7 | 0.00 | 1.98 | 0.00 | 94 | 1013.1 |
| 20260510085557 | 67 | 1 | 0.0 | 1.7 | 0.00 | 1.98 | 0.00 | 94 | 1013.2 |
| 20260510085054 | 66 | 0 | 0.0 | 0.9 | 0.00 | 1.98 | 0.00 | 94 | 1013.2 |
| 20260510084559 | 66 | 0 | 0.0 | 1.7 | 0.00 | 1.98 | 0.00 | 94 | 1013.2 |
| 20260510084054 | 66 | 2 | 0.0 | 1.7 | 0.00 | 1.98 | 0.00 | 94 | 1013.2 |
| 20260510083554 | 66 | 2 | 0.0 | 0.0 | 0.00 | 1.98 | 0.00 | 94 | 1013.2 |
| 20260510083054 | 66 | 0 | 0.0 | 0.0 | 0.00 | 1.98 | 0.00 | 94 | 1013.2 |
| 20260510082553 | 65 | 0 | 0.0 | 0.0 | 0.00 | 1.98 | 0.00 | 94 | 1013.3 |
| 20260510082054 | 65 | 0 | 0.0 | 0.0 | 0.00 | 1.98 | 0.00 | 94 | 1013.2 |
| 20260510081600 | 66 | 0 | 0.0 | 0.0 | 0.00 | 1.98 | 0.00 | 94 | 1013.1 |
| 20260510081054 | 66 | 0 | 0.0 | 0.0 | 0.00 | 1.98 | 0.00 | 94 | 1013.0 |
| 20260510080554 | 65 | 0 | 0.0 | 0.0 | 0.00 | 1.98 | 0.00 | 94 | 1012.9 |
| 20260510075557 | 66 | 0 | 0.0 | 0.0 | 0.00 | 1.98 | 0.00 | 94 | 1012.9 |
| 20260510075058 | 66 | 0 | 0.0 | 0.0 | 0.00 | 1.98 | 0.00 | 94 | 1012.9 |
| 20260510074553 | 66 | 0 | 0.0 | 0.0 | 0.00 | 1.98 | 0.00 | 94 | 1012.9 |
| 20260510074055 | 66 | 0 | 0.0 | 0.0 | 0.00 | 1.98 | 0.00 | 94 | 1012.9 |
| 20260510073554 | 66 | 0 | 0.0 | 0.0 | 0.00 | 1.98 | 0.00 | 94 | 1012.9 |
| 20260510073055 | 66 | 0 | 0.0 | 0.0 | 0.00 | 1.98 | 0.00 | 94 | 1012.8 |
| 20260510072556 | 66 | 0 | 0.0 | 0.0 | 0.00 | 1.98 | 0.00 | 94 | 1012.6 |
| 20260510072053 | 66 | 0 | 0.0 | 0.0 | 0.00 | 1.98 | 0.00 | 94 | 1012.6 |
| 20260510071555 | 66 | 0 | 0.0 | 1.7 | 0.00 | 1.98 | 0.00 | 94 | 1012.5 |
| 20260510071054 | 66 | 0 | 0.0 | 1.7 | 0.00 | 1.98 | 0.00 | 94 | 1012.5 |
| 20260510070556 | 66 | 0 | 0.0 | 1.7 | 0.00 | 1.98 | 0.00 | 94 | 1012.6 |
| 20260510070106 | 66 | 2 | 0.0 | 1.7 | 0.00 | 1.98 | 0.00 | 94 | 1012.8 |
| 20260510065556 | 66 | 2 | 0.0 | 1.7 | 0.00 | 1.98 | 0.00 | 94 | 1012.8 |
| 20260510065055 | 66 | 0 | 0.0 | 0.0 | 0.00 | 1.98 | 0.00 | 94 | 1012.7 |
| 20260510064608 | 66 | 0 | 0.0 | 0.0 | 0.00 | 1.98 | 0.00 | 94 | 1012.7 |
| 20260510064055 | 66 | 0 | 0.0 | 0.0 | 0.00 | 1.98 | 0.00 | 94 | 1012.8 |
| 20260510063555 | 66 | 0 | 0.0 | 0.0 | 0.00 | 1.98 | 0.00 | 94 | 1012.8 |
| 20260510063055 | 66 | 0 | 0.0 | 2.6 | 0.00 | 1.98 | 0.00 | 94 | 1012.7 |
| 20260510062558 | 67 | 0 | 0.0 | 2.6 | 0.00 | 1.98 | 0.00 | 94 | 1012.6 |
| 20260510062052 | 67 | 1 | 0.9 | 1.7 | 0.00 | 1.98 | 0.00 | 94 | 1012.7 |
| 20260510061554 | 66 | 32 | 0.0 | 1.7 | 0.00 | 1.98 | 0.00 | 94 | 1012.7 |
| 20260510061102 | 66 | 27 | 0.0 | 1.7 | 0.00 | 1.98 | 0.00 | 94 | 1012.8 |
| 20260510060557 | 66 | 0 | 0.0 | 0.0 | 0.00 | 1.98 | 0.00 | 94 | 1012.7 |
| 20260510060056 | 66 | 0 | 0.0 | 0.0 | 0.00 | 1.98 | 0.00 | 94 | 1012.8 |
| 20260510055554 | 67 | 0 | 0.0 | 0.0 | 0.00 | 1.98 | 0.00 | 94 | 1012.8 |
| 20260510055055 | 67 | 0 | 0.0 | 0.0 | 0.00 | 1.98 | 0.00 | 93 | 1012.8 |
| 20260510054600 | 67 | 0 | 0.0 | 0.0 | 0.00 | 1.98 | 0.00 | 94 | 1012.9 |
| 20260510054055 | 67 | 0 | 0.0 | 1.7 | 0.00 | 1.98 | 0.00 | 93 | 1012.7 |
| 20260510053555 | 67 | 0 | 0.0 | 1.7 | 0.00 | 1.98 | 0.00 | 93 | 1012.7 |
| 20260510053057 | 67 | 0 | 0.0 | 0.0 | 0.00 | 1.98 | 0.00 | 94 | 1012.5 |
| 20260510052556 | 67 | 0 | 0.0 | 0.0 | 0.00 | 1.98 | 0.00 | 93 | 1012.5 |
| 20260510052055 | 67 | 0 | 0.0 | 0.9 | 0.00 | 1.98 | 0.00 | 94 | 1012.6 |
| 20260510051608 | 68 | 0 | 0.0 | 1.7 | 0.00 | 1.98 | 0.00 | 93 | 1012.7 |
| 20260510051604 | 68 | 0 | 0.0 | 1.7 | 0.00 | 1.98 | 0.00 | 94 | 1012.5 |
| 20260510050555 | 68 | 0 | 0.0 | 1.7 | 0.00 | 1.98 | 0.00 | 94 | 1012.6 |
| 20260510045552 | 68 | 0 | 0.0 | 0.0 | 0.00 | 1.98 | 1.98 | 94 | 1012.8 |
| 20260510045052 | 68 | 0 | 0.0 | 0.0 | 0.00 | 1.98 | 1.98 | 94 | 1012.8 |
| 20260510044602 | 68 | 0 | 0.0 | 0.0 | 0.00 | 1.98 | 1.98 | 94 | 1012.7 |
| 20260510044053 | 68 | 0 | 0.0 | 0.0 | 0.00 | 1.98 | 1.98 | 94 | 1012.8 |
| 20260510043553 | 68 | 0 | 0.0 | 0.0 | 0.00 | 1.98 | 1.98 | 94 | 1013.0 |
| 20260510043051 | 68 | 0 | 0.0 | 1.7 | 0.00 | 1.98 | 1.98 | 93 | 1013.0 |
| 20260510042552 | 68 | 0 | 0.0 | 1.7 | 0.00 | 1.98 | 1.98 | 94 | 1013.1 |
| 20260510042052 | 68 | 0 | 0.0 | 1.7 | 0.00 | 1.98 | 1.98 | 94 | 1013.0 |
| 20260510041606 | 68 | 0 | 0.0 | 1.7 | 0.00 | 1.98 | 1.98 | 94 | 1012.8 |
| 20260510041052 | 68 | 0 | 0.0 | 1.7 | 0.00 | 1.98 | 1.98 | 94 | 1012.7 |
| 20260510040552 | 68 | 164 | 0.0 | 1.7 | 0.00 | 1.98 | 1.98 | 94 | 1012.6 |
| 20260510040054 | 68 | 110 | 0.0 | 1.7 | 0.00 | 1.98 | 1.98 | 94 | 1012.7 |
| 20260510035552 | 68 | 0 | 0.0 | 1.7 | 0.00 | 1.98 | 1.98 | 94 | 1012.7 |
| 20260510035052 | 68 | 0 | 0.0 | 0.9 | 0.00 | 1.98 | 1.98 | 94 | 1013.0 |
| 20260510034602 | 67 | 0 | 0.0 | 0.9 | 0.00 | 1.98 | 1.98 | 94 | 1013.2 |
| 20260510034054 | 67 | 0 | 0.0 | 0.0 | 0.00 | 1.98 | 1.98 | 93 | 1013.3 |
| 20260510033554 | 67 | 0 | 0.0 | 1.7 | 0.00 | 1.98 | 1.98 | 93 | 1013.5 |
| 20260510033057 | 67 | 0 | 0.0 | 1.7 | 0.00 | 1.98 | 1.98 | 93 | 1013.7 |
| 20260510032552 | 67 | 0 | 0.0 | 1.7 | 0.00 | 1.98 | 1.98 | 94 | 1013.8 |
| 20260510032053 | 67 | 0 | 0.0 | 1.7 | 0.00 | 1.98 | 1.98 | 94 | 1013.7 |
| 20260510031604 | 67 | 0 | 0.0 | 0.0 | 0.00 | 1.98 | 1.98 | 93 | 1013.7 |
| 20260510031053 | 67 | 0 | 0.0 | 0.0 | 0.00 | 1.98 | 1.98 | 93 | 1013.7 |
| 20260510030554 | 67 | 0 | 0.0 | 0.0 | 0.00 | 1.98 | 1.98 | 93 | 1013.8 |
| 20260510030104 | 67 | 0 | 0.0 | 0.0 | 0.00 | 1.98 | 1.98 | 93 | 1013.8 |
| 20260510025552 | 67 | 0 | 0.0 | 0.0 | 0.00 | 1.98 | 1.98 | 93 | 1013.7 |
| 20260510025055 | 67 | 0 | 0.0 | 1.7 | 0.00 | 1.98 | 1.98 | 93 | 1013.7 |
| 20260510024555 | 67 | 0 | 0.0 | 1.7 | 0.00 | 1.98 | 1.98 | 93 | 1013.7 |
| 20260510024052 | 67 | 0 | 0.0 | 0.9 | 0.00 | 1.98 | 1.98 | 93 | 1013.8 |
| 20260510023556 | 67 | 0 | 0.0 | 0.0 | 0.00 | 1.98 | 1.98 | 93 | 1013.8 |
| 20260510023055 | 67 | 0 | 0.0 | 0.0 | 0.00 | 1.98 | 1.98 | 93 | 1013.6 |
| 20260510022557 | 67 | 0 | 0.0 | 0.0 | 0.00 | 1.98 | 1.98 | 93 | 1013.4 |
| 20260510022056 | 67 | 0 | 0.0 | 0.0 | 0.00 | 1.98 | 1.98 | 93 | 1013.4 |
| 20260510021551 | 67 | 0 | 0.0 | 0.0 | 0.00 | 1.98 | 1.98 | 93 | 1013.2 |
| 20260510021052 | 67 | 0 | 0.0 | 0.0 | 0.00 | 1.98 | 1.98 | 93 | 1013.2 |
| 20260510020552 | 68 | 0 | 0.0 | 0.0 | 0.00 | 1.98 | 1.98 | 93 | 1013.4 |
| 20260510020054 | 68 | 0 | 0.0 | 0.0 | 0.00 | 1.98 | 1.98 | 93 | 1013.3 |
| 20260510015553 | 68 | 0 | 0.0 | 0.0 | 0.00 | 1.98 | 1.98 | 93 | 1013.1 |
| 20260510015052 | 68 | 0 | 0.0 | 1.7 | 0.00 | 1.98 | 1.98 | 93 | 1013.1 |
| 20260510014600 | 68 | 0 | 0.0 | 1.7 | 0.01 | 1.98 | 1.98 | 93 | 1013.0 |
| 20260510014052 | 68 | 0 | 0.0 | 0.0 | 0.01 | 1.98 | 1.98 | 93 | 1013.0 |
| 20260510013551 | 68 | 0 | 0.0 | 0.9 | 0.01 | 1.98 | 1.98 | 93 | 1013.0 |
| 20260510013058 | 68 | 0 | 0.0 | 1.7 | 0.02 | 1.98 | 1.98 | 93 | 1012.8 |
| 20260510012553 | 68 | 0 | 0.0 | 1.7 | 0.02 | 1.98 | 1.98 | 93 | 1012.8 |
| 20260510012053 | 68 | 0 | 0.0 | 1.7 | 0.02 | 1.98 | 1.98 | 93 | 1012.7 |
| 20260510011552 | 68 | 0 | 0.0 | 1.7 | 0.02 | 1.98 | 1.98 | 93 | 1012.8 |
| 20260510011053 | 68 | 0 | 0.0 | 1.7 | 0.02 | 1.98 | 1.98 | 93 | 1012.7 |
| 20260510010552 | 68 | 0 | 0.0 | 1.7 | 0.02 | 1.98 | 1.98 | 93 | 1012.7 |
| 20260510010054 | 68 | 0 | 0.0 | 1.7 | 0.02 | 1.98 | 1.98 | 93 | 1012.7 |
| 20260510005552 | 68 | 0 | 0.0 | 1.7 | 0.02 | 1.98 | 1.98 | 93 | 1012.8 |
| 20260510005056 | 68 | 0 | 0.0 | 1.7 | 0.02 | 1.98 | 1.98 | 93 | 1012.8 |
| 20260510004553 | 68 | 0 | 0.0 | 1.7 | 0.01 | 1.97 | 1.97 | 93 | 1012.8 |
| 20260510004052 | 68 | 0 | 0.0 | 1.7 | 0.01 | 1.97 | 1.97 | 93 | 1012.9 |
| 20260510003556 | 68 | 0 | 0.0 | 1.7 | 0.01 | 1.97 | 1.97 | 93 | 1012.6 |
| 20260510003058 | 68 | 0 | 0.0 | 0.0 | 0.00 | 1.96 | 1.96 | 93 | 1012.8 |
| 20260510002557 | 68 | 0 | 0.0 | 0.0 | 0.01 | 1.96 | 1.96 | 93 | 1012.7 |
| 20260510002052 | 68 | 0 | 0.0 | 0.0 | 0.01 | 1.96 | 1.96 | 93 | 1012.7 |
| 20260510001554 | 68 | 0 | 0.0 | 0.0 | 0.02 | 1.96 | 1.96 | 93 | 1012.7 |
| 20260510001053 | 68 | 0 | 0.0 | 0.9 | 0.03 | 1.96 | 1.96 | 93 | 1012.7 |
| 20260510000557 | 68 | 0 | 0.0 | 0.9 | 0.03 | 1.96 | 1.96 | 93 | 1012.6 |
| 20260509235555 | 69 | 0 | 0.0 | 0.0 | 0.06 | 1.96 | 1.96 | 93 | 1012.7 |
| 20260509235052 | 68 | 0 | 0.0 | 0.9 | 0.07 | 1.96 | 1.96 | 93 | 1012.8 |
| 20260509234604 | 69 | 0 | 0.0 | 1.7 | 0.08 | 1.96 | 1.96 | 93 | 1012.9 |
| 20260509234056 | 69 | 0 | 0.0 | 1.7 | 0.08 | 1.96 | 1.96 | 93 | 1012.7 |
| 20260509233555 | 69 | 0 | 0.0 | 1.7 | 0.08 | 1.96 | 1.96 | 93 | 1012.7 |
| 20260509233059 | 69 | 0 | 0.0 | 1.7 | 0.08 | 1.96 | 1.96 | 93 | 1012.6 |
| 20260509232555 | 69 | 0 | 0.0 | 1.7 | 0.07 | 1.95 | 1.95 | 93 | 1012.7 |
| 20260509232054 | 69 | 0 | 0.0 | 1.7 | 0.07 | 1.95 | 1.95 | 93 | 1012.7 |
| 20260509231610 | 69 | 0 | 0.0 | 0.9 | 0.06 | 1.94 | 1.94 | 93 | 1012.9 |